Terminal Aerodrome Forecast
Issued by NWS

Home | Current Version | Previous Version | Graphics & Text | Print | Product List | Glossary On
Versions: 1 2 3 4 5 6 7 8 9 10 11 12 13 14 15 16 17
000
FTUS45 KGGW 180842 AAA
TAFGDV
TAF AMD
KGDV 180842Z 1809/1906 32022G33KT P6SM BKN200
     FM181200 31020KT P6SM FEW250
     FM181600 29012KT P6SM SCT150
     FM190100 19007KT P6SM SCT150=

USA.gov is the U.S. government's official web portal to all federal, state and local government web resources and services.